GW2092 Weather Reports


time (UTC)temp
F
wind
direction
speed
knots
gust
knots
rain 1hr
in
rain 24hr
in
rain mn
in
humidity
%
barometer
mb
20260507200043 70 207 0.0 3.5 0.00 0.00 0.00 43 1016.5
20260507194608 70 173 0.0 6.1 0.00 0.00 0.00 46 1016.7
20260507193038 70 0 0.9 2.6 0.00 0.00 0.00 44 1016.7
20260507191542 70 337 0.0 4.3 0.00 0.00 0.00 41 1016.9
20260507190044 69 0 0.0 2.6 0.00 0.00 0.00 46 1017.0
20260507184545 70 165 0.0 2.6 0.00 0.00 0.00 42 1017.3
20260507183041 70 23 0.0 1.7 0.00 0.00 0.00 42 1017.4
20260507181539 69 113 0.0 3.5 0.00 0.00 0.00 42 1017.5
20260507180040 69 0 0.0 3.5 0.00 0.00 0.00 40 1017.7
20260507174549 69 200 0.0 2.6 0.00 0.00 0.00 44 1017.9
20260507173044 68 0 0.9 4.3 0.00 0.00 0.00 43 1018.1
20260507171547 68 213 0.0 4.3 0.00 0.00 0.00 48 1018.5
20260507170043 68 0 0.0 2.6 0.00 0.00 0.00 44 1018.8
20260507164538 67 181 0.0 2.6 0.00 0.00 0.00 45 1018.8
20260507163037 67 357 0.0 3.5 0.00 0.00 0.00 44 1019.0
20260507161540 66 239 0.0 2.6 0.00 0.00 0.00 45 1018.9
20260507160045 66 255 0.0 2.6 0.00 0.00 0.00 44 1019.1
20260507154543 65 204 0.0 2.6 0.00 0.00 0.00 45 1019.2
20260507153043 65 27 0.0 2.6 0.00 0.00 0.00 45 1019.4
20260507151539 63 0 0.0 2.6 0.00 0.00 0.00 46 1019.6
20260507150047 62 0 0.0 3.5 0.00 0.00 0.00 50 1019.6
20260507144545 61 0 0.0 3.5 0.00 0.00 0.00 53 1019.5
20260507143045 60 0 0.0 2.6 0.00 0.00 0.00 57 1019.4
20260507141544 58 127 0.0 3.5 0.00 0.00 0.00 60 1019.5
20260507140040 56 211 0.9 3.5 0.00 0.00 0.00 60 1019.6
20260507134539 55 0 0.9 2.6 0.00 0.00 0.00 62 1019.6
20260507133048 54 138 0.0 1.7 0.00 0.00 0.00 63 1019.5
20260507131605 53 131 0.0 1.7 0.00 0.00 0.00 65 1019.6
20260507130043 51 224 0.0 0.9 0.00 0.00 0.00 68 1019.5
20260507124544 50 0 0.0 0.9 0.00 0.00 0.00 71 1019.3
20260507123043 47 0 0.0 0.9 0.00 0.00 0.00 78 1019.3
20260507121539 45 0 0.0 0.0 0.00 0.00 0.00 86 1019.2
20260507120039 43 0 0.0 0.0 0.00 0.00 0.00 92 1018.9
20260507114547 39 0 0.0 0.0 0.00 0.00 0.00 92 1018.9
20260507113045 39 0 0.0 0.0 0.00 0.00 0.00 91 1018.9
20260507111544 39 0 0.0 0.0 0.00 0.00 0.00 90 1018.8
20260507110041 40 0 0.0 0.0 0.00 0.00 0.00 90 1018.7
20260507104546 40 0 0.0 0.0 0.00 0.00 0.00 91 1018.4
20260507103045 41 0 0.0 0.0 0.00 0.00 0.00 91 1018.3
20260507101538 41 0 0.0 0.0 0.00 0.00 0.00 91 1018.4
20260507100048 41 0 0.0 0.0 0.00 0.00 0.00 92 1018.3
20260507094542 40 0 0.0 0.0 0.00 0.00 0.00 92 1018.3
20260507093053 39 0 0.0 0.0 0.00 0.00 0.00 92 1018.8
20260507091548 38 0 0.0 0.0 0.00 0.00 0.00 90 1018.7
20260507090043 38 0 0.0 0.0 0.00 0.00 0.00 89 1018.7
20260507084550 39 0 0.0 0.0 0.00 0.00 0.00 87 1018.7
20260507083046 40 0 0.0 0.0 0.00 0.00 0.00 85 1018.7
20260507081543 41 0 0.0 0.0 0.00 0.00 0.00 80 1018.6
20260507080041 43 0 0.0 0.0 0.00 0.00 0.00 77 1018.8
20260507074551 44 0 0.0 0.9 0.00 0.00 0.00 74 1018.4
20260507073045 44 0 0.0 0.9 0.00 0.00 0.00 73 1018.4
20260507071603 44 0 0.0 0.9 0.00 0.00 0.00 75 1018.6
20260507070045 44 0 0.0 0.0 0.00 0.00 0.00 75 1018.7
20260507064542 44 0 0.0 0.9 0.00 0.00 0.00 73 1018.8
20260507063045 44 0 0.0 0.0 0.00 0.00 0.00 73 1018.9
20260507061540 45 0 0.0 0.9 0.00 0.00 0.00 73 1018.8
20260507060039 45 0 0.0 0.9 0.00 0.00 0.00 74 1018.8
20260507054538 45 0 0.0 0.9 0.00 0.00 0.00 75 1018.6
20260507053111 46 0 0.0 0.9 0.00 0.00 0.00 73 1018.8
20260507051545 47 0 0.0 1.7 0.00 0.00 0.00 71 1019.0
20260507050044 47 0 0.0 2.6 0.00 0.00 0.00 71 1018.8
20260507044538 47 0 0.0 1.7 0.00 0.00 0.00 71 1018.9
20260507043038 47 332 0.0 1.7 0.00 0.00 0.00 72 1018.8
20260507041537 47 0 0.0 0.9 0.00 0.00 0.00 72 1018.6
20260507040046 48 0 0.0 1.7 0.00 0.00 0.00 70 1018.5
20260507034543 49 0 0.0 1.7 0.00 0.00 0.00 69 1018.5
20260507033044 49 0 0.0 0.9 0.00 0.00 0.00 69 1018.4
20260507031538 50 358 0.0 2.6 0.00 0.00 0.00 68 1018.3
20260507030047 49 0 0.0 0.9 0.00 0.00 0.00 69 1018.2
20260507024544 50 0 0.0 0.9 0.00 0.00 0.00 69 1018.1
20260507023044 49 0 0.0 0.9 0.00 0.00 0.00 69 1017.9
20260507021548 49 0 0.0 0.0 0.00 0.00 0.00 69 1017.8
20260507020047 50 0 0.0 0.0 0.00 0.00 0.00 68 1017.8
20260507014556 52 0 0.0 0.9 0.00 0.00 0.00 66 1017.6
20260507013050 52 0 0.0 0.9 0.00 0.00 0.00 65 1017.4
20260507011545 53 0 0.0 0.9 0.00 0.00 0.00 63 1017.3
20260507010046 54 0 0.0 0.9 0.00 0.00 0.00 60 1017.1
20260507004545 55 0 0.0 0.9 0.00 0.00 0.00 58 1017.0
20260507003046 56 0 0.0 1.7 0.00 0.00 0.00 55 1016.9
20260507001547 57 332 0.0 5.2 0.00 0.00 0.00 52 1016.8
20260507000038 58 32 0.0 7.0 0.00 0.00 0.00 52 1016.7
20260506234545 58 0 0.9 3.5 0.00 0.00 0.00 53 1016.6
20260506233052 59 0 1.7 7.0 0.00 0.00 0.00 51 1016.3
20260506231542 60 35 0.9 6.1 0.00 0.00 0.00 52 1016.0
20260506230041 60 0 1.7 7.8 0.00 0.00 0.00 50 1015.8
20260506224549 61 353 1.7 7.0 0.00 0.00 0.00 48 1015.9
20260506223037 61 347 0.9 6.1 0.00 0.00 0.00 50 1015.8
20260506221545 61 31 1.7 6.1 0.00 0.00 0.00 51 1015.7
20260506220048 62 51 0.0 5.2 0.00 0.00 0.00 54 1015.9
20260506214550 61 358 0.9 7.0 0.00 0.00 0.00 52 1015.9
20260506213040 62 23 0.0 6.1 0.00 0.00 0.00 51 1015.9
20260506211539 62 69 0.9 7.0 0.00 0.00 0.00 52 1015.9
20260506210047 62 62 0.9 6.1 0.00 0.00 0.00 51 1016.2
20260506204549 62 350 0.9 7.0 0.00 0.00 0.00 50 1016.2
20260506203045 62 77 0.9 6.1 0.00 0.00 0.00 54 1016.6
20260506201545 62 13 0.9 7.0 0.00 0.00 0.00 55 1016.8